Glens Falls, NY

4:56 PM EDT on October 22, 2017 (GMT -0400)
Bennett Memorial

Weather History for KGFL - November, 2011

Change the Weather History Date:

Tuesday, November 22, 2011

  Actual Average Record
Temperature  
Mean Temperature 27 °F 35 °F  
Max Temperature 36 °F 44 °F 68 °F (1953)
Min Temperature 18 °F 26 °F 10 °F (1969)
Degree Days  
Heating Degree Days 38 30  
Month to date heating degree days 513 586  
Since 1 July heating degree days 1063 1441  
Cooling Degree Days 0 0  
Month to date cooling degree days 0 0  
Year to date cooling degree days 503 352  
Moisture  
Dew Point 23 °F    
Average Humidity 85    
Maximum Humidity 100    
Minimum Humidity 64    
Precipitation  
Precipitation 0.28 in 0.12 in 1.07 in (1991)
Month to date precipitation 0.79 2.43  
Year to date precipitation 42.86 35.13  
Sea Level Pressure  
Sea Level Pressure 30.34 in    
Wind  
Wind Speed 3 mph (NE)    
Max Wind Speed 10 mph    
Max Gust Speed 12 mph    
Visibility 8 miles    
Events Fog , Snow    
T = Trace of Precipitation, MM = Missing Value Source: NWS Daily Summary

Daily Weather History Graph

Daily Weather History Graph

Search for Another Location

Airport or City:

Trip Planner

Search our weather history database for the weather conditions in past years. The results will help you decide how hot, cold, wet, or windy it might be!

Date:

Astronomy

Nov. 22, 2011 Rise Set
Actual Time 6:56 AM EST 4:24 PM EST
Civil Twilight 6:24 AM EST 4:55 PM EST
Nautical Twilight 5:49 AM EST 5:30 PM EST
Astronomical Twilight 5:15 AM EST 6:04 PM EST
Moon 3:39 AM EST 2:24 PM EST
Length of Visible Light 10h 30m
Length of Day
9h 28m
Waning Crescent, 9% of the Moon is Illuminated
Nov 22
Waning Crescent
Nov 25
New
Dec 2
First Quarter
Dec 10
Full
Dec 17
Last Quarter

Hourly Weather History & Observations

Time (EST) Temp. Windchill Dew Point Humidity Pressure Visibility Wind Dir Wind Speed Gust Speed Precip Events Conditions
12:53 AM 21.0 °F - 19.0 °F 92% 30.40 in 10.0 mi Calm Calm - N/A   Clear
1:53 AM 19.0 °F - 17.1 °F 92% 30.40 in 10.0 mi Calm Calm - N/A   Clear
2:53 AM 19.9 °F - 17.1 °F 89% 30.41 in 10.0 mi Calm Calm - N/A   Clear
3:53 AM 19.9 °F - 17.1 °F 89% 30.42 in 10.0 mi Calm Calm - N/A   Clear
4:53 AM 19.0 °F - 17.1 °F 92% 30.43 in 10.0 mi Calm Calm - N/A   Clear
5:53 AM 19.0 °F - 16.0 °F 88% 30.43 in 10.0 mi Calm Calm - N/A   Clear
6:03 AM 19.4 °F - 15.8 °F 86% 30.40 in 10.0 mi Calm Calm - N/A   Scattered Clouds
6:13 AM 19.4 °F - 17.6 °F 93% 30.40 in 10.0 mi Calm Calm - N/A   Mostly Cloudy
6:28 AM 19.4 °F - 17.6 °F 93% 30.40 in 10.0 mi Calm Calm - N/A   Scattered Clouds
6:53 AM 19.0 °F - 16.0 °F 88% 30.44 in 10.0 mi Calm Calm - N/A   Clear
7:48 AM 21.2 °F - 17.6 °F 86% 30.42 in 10.0 mi Calm Calm - N/A   Partly Cloudy
7:53 AM 21.9 °F - 19.0 °F 89% 30.45 in 9.0 mi Calm Calm - N/A   Partly Cloudy
8:07 AM 23.0 °F - 21.2 °F 93% 30.43 in 8.0 mi Calm Calm - N/A   Mostly Cloudy
8:33 AM 26.6 °F - 23.0 °F 86% 30.44 in 10.0 mi Calm Calm - N/A   Partly Cloudy
8:53 AM 27.0 °F 23.0 °F 24.1 °F 89% 30.48 in 10.0 mi East 3.5 mph - N/A   Clear
9:53 AM 30.0 °F - 26.1 °F 85% 30.48 in 10.0 mi Calm Calm - N/A   Clear
10:53 AM 32.0 °F 27.5 °F 26.1 °F 79% 30.44 in 10.0 mi ENE 4.6 mph - N/A   Clear
11:53 AM 34.0 °F 28.8 °F 26.1 °F 73% 30.42 in 10.0 mi ENE 5.8 mph - N/A   Clear
12:53 PM 35.1 °F 30.1 °F 26.1 °F 70% 30.40 in 10.0 mi NNE 5.8 mph - N/A   Clear
1:53 PM 36.0 °F 33.3 °F 25.0 °F 64% 30.38 in 10.0 mi East 3.5 mph - N/A   Clear
2:53 PM 35.1 °F 27.9 °F 25.0 °F 67% 30.36 in 10.0 mi ENE 9.2 mph - N/A   Clear
3:53 PM 34.0 °F 28.0 °F 25.0 °F 70% 30.35 in 10.0 mi ENE 6.9 mph - N/A   Clear
4:53 PM 33.8 °F 29.6 °F 24.8 °F 70% 30.33 in 10.0 mi NNE 4.6 mph - N/A   Clear
5:53 PM 33.1 °F 28.7 °F 25.0 °F 72% 30.34 in 10.0 mi ENE 4.6 mph - N/A   Mostly Cloudy
6:53 PM 33.1 °F 27.7 °F 25.0 °F 72% 30.32 in 10.0 mi ENE 5.8 mph - N/A   Overcast
7:01 PM 33.8 °F 29.6 °F 24.8 °F 70% 30.28 in 10.0 mi East 4.6 mph - N/A   Overcast
7:53 PM 34.0 °F 29.8 °F 24.1 °F 67% 30.30 in 10.0 mi NE 4.6 mph - N/A   Overcast
8:53 PM 32.0 °F 27.5 °F 26.1 °F 79% 30.27 in 3.0 mi NE 4.6 mph - 0.00 in Snow Light Snow
9:07 PM 30.2 °F 25.4 °F 26.6 °F 86% 30.23 in 2.5 mi NE 4.6 mph - 0.00 in Snow Light Snow
9:30 PM 30.2 °F 24.3 °F 28.4 °F 93% 30.21 in 1.5 mi NNE 5.8 mph - 0.01 in Snow Light Snow
9:53 PM 30.9 °F 26.2 °F 28.9 °F 92% 30.22 in 1.5 mi NNE 4.6 mph - 0.02 in Snow Light Snow
10:29 PM 30.2 °F 26.7 °F 30.2 °F 100% 30.16 in 1.0 mi NE 3.5 mph - 0.04 in Snow Light Snow
10:36 PM 30.2 °F 26.7 °F 30.2 °F 100% 30.16 in 0.8 mi NE 3.5 mph - 0.05 in Snow Light Snow
10:53 PM 30.2 °F 26.7 °F 30.2 °F 100% 30.15 in 0.8 mi NNE 3.5 mph - N/A Snow Light Snow
11:02 PM 30.2 °F 26.7 °F 30.2 °F 100% 30.15 in 0.8 mi NNE 3.5 mph - 0.02 in Snow Light Snow
11:23 PM 30.2 °F 24.3 °F 30.2 °F 100% 30.14 in 0.8 mi NNE 5.8 mph - 0.07 in Snow Light Snow
11:53 PM 30.9 °F 26.2 °F 30.0 °F 96% 30.14 in 0.5 mi ENE 4.6 mph - 0.16 in Fog , Snow Snow